Latest Coastal Weather Observations for Cato Island

IDQ60701

Issued at 9:42 am EST Sunday 18 November 2018 (issued every 10 minutes, with the page automatically refreshed every 10 minutes)

About coastal observations | Map of coastal stations | Coastal observations for QLD | Marine services | Other Formats
Station Details ID: 200601 Name: CATO ISLAND Lat: -23.25 Lon: 155.54 Height: 6.3 m
Data from the previous 72 hours. | See also: Recent months for locations in Queensland
Date/Time
EST
Wind Sea
Height
m
Swell Vis
km
Cloud Weather Temp
°C
Press
hPa
Rain since
9am
mm
Dir  Spd
kts
Gust
kts
Height
m
Period
s
Dir
18/09:30am - 12 13 - - - - - - - 24.7 1015.0 -
18/09:00am - 12 14 - - - - - - - 24.7 1014.9 -
18/08:30am - 12 14 - - - - - - - 24.6 1014.9 -
18/08:00am - 12 14 - - - - - - - 24.5 1014.7 -
18/07:30am - 10 12 - - - - - - - 24.4 1014.5 -
18/07:00am - 11 12 - - - - - - - 24.3 1014.4 -
18/06:30am - 10 11 - - - - - - - 23.7 1014.4 -
18/06:00am - 10 12 - - - - - - - 23.8 1013.9 -
18/05:30am - 10 12 - - - - - - - 23.7 1013.4 -
18/05:00am - 8 9 - - - - - - - 23.4 1013.4 -
18/04:30am - 9 10 - - - - - - - 23.2 1013.0 -
18/04:00am - 9 11 - - - - - - - 23.3 1012.9 -
18/03:30am - 9 11 - - - - - - - 23.3 1013.2 -
18/03:00am - 9 11 - - - - - - - 23.3 1013.2 -
18/02:30am - 10 11 - - - - - - - 23.3 1013.2 -
18/02:00am - 12 14 - - - - - - - 23.3 1013.7 -
18/01:30am - 11 13 - - - - - - - 23.5 1014.1 -
18/01:00am - 11 13 - - - - - - - 23.7 1014.3 -
18/12:30am - 10 11 - - - - - - - 23.8 1014.5 -
18/12:00am - 11 11 - - - - - - - 23.8 1014.9 -
 
Date/Time
EST
Wind Sea
Height
m
Swell Vis
km
Cloud Weather Temp
°C
Press
hPa
Rain since
9am
mm
Dir  Spd
kts
Gust
kts
Height
m
Period
s
Dir
17/11:30pm - 10 12 - - - - - - - 23.8 1015.1 -
17/11:00pm - 11 13 - - - - - - - 23.8 1015.0 -
17/10:30pm - 12 14 - - - - - - - 23.7 1015.0 -
17/10:00pm - 11 13 - - - - - - - 23.7 1015.3 -
17/09:30pm - 10 12 - - - - - - - 23.7 1015.0 -
17/09:00pm - 11 12 - - - - - - - 23.8 1014.8 -
17/08:30pm - 10 12 - - - - - - - 23.7 1014.3 -
17/08:00pm - 10 11 - - - - - - - 23.7 1013.9 -
17/07:30pm - 11 13 - - - - - - - 23.8 1013.5 -
17/07:00pm - 11 13 - - - - - - - 23.9 1013.3 -
17/06:30pm - 11 13 - - - - - - - 23.8 1013.2 -
17/06:00pm - 11 13 - - - - - - - 24.0 1013.2 -
17/05:30pm - 11 12 - - - - - - - 24.1 1013.2 -
17/05:00pm - 10 11 - - - - - - - 24.3 1012.9 -
17/04:30pm - 9 11 - - - - - - - 24.4 1013.1 -
17/04:00pm - 9 11 - - - - - - - 24.6 1013.2 -
17/03:30pm - 10 11 - - - - - - - 25.0 1013.2 -
17/03:00pm - 9 11 - - - - - - - 25.0 1013.3 -
17/02:30pm - 9 11 - - - - - - - 25.3 1013.3 -
17/02:00pm - 9 11 - - - - - - - 25.3 1013.3 -
17/01:30pm - 9 11 - - - - - - - 25.3 1013.6 -
17/01:00pm - 8 10 - - - - - - - 25.5 1013.6 -
17/12:30pm - 8 10 - - - - - - - 25.4 1013.8 -
17/12:00pm - 9 11 - - - - - - - 25.3 1013.9 -
17/11:30am - 9 11 - - - - - - - 25.3 1014.4 -
17/11:00am - 9 10 - - - - - - - 25.4 1014.8 -
17/10:30am - 8 10 - - - - - - - 25.5 1015.2 -
17/10:00am - 10 11 - - - - - - - 25.1 1015.3 -
17/09:30am - 11 12 - - - - - - - 25.3 1015.4 -
17/09:00am - 10 12 - - - - - - - 24.9 1015.4 -
17/08:30am - 11 13 - - - - - - - 24.6 1015.3 -
17/08:00am - 11 13 - - - - - - - 24.6 1015.3 -
17/07:30am - 10 13 - - - - - - - 24.6 1015.3 -
17/07:00am - 11 13 - - - - - - - 24.4 1015.0 -
17/06:30am - 11 13 - - - - - - - 24.4 1014.7 -
17/06:00am - 11 12 - - - - - - - 24.1 1014.2 -
17/05:30am - 13 14 - - - - - - - 23.9 1013.8 -
17/05:00am - 13 14 - - - - - - - 23.5 1013.5 -
17/04:30am - 13 16 - - - - - - - 23.6 1013.3 -
17/04:00am - 15 19 - - - - - - - 23.6 1013.1 -
17/03:30am - 14 19 - - - - - - - 23.5 1012.7 -
17/03:00am - 16 19 - - - - - - - 23.3 1012.5 -
17/02:30am - 16 19 - - - - - - - 23.4 1012.4 -
17/02:00am - 15 17 - - - - - - - 23.3 1012.4 -
17/01:30am - 15 17 - - - - - - - 23.3 1012.7 -
17/01:00am - 15 17 - - - - - - - 23.3 1013.0 -
17/12:30am - 15 17 - - - - - - - 23.2 1013.6 -
17/12:00am - 14 17 - - - - - - - 23.2 1014.0 -
 
Date/Time
EST
Wind Sea
Height
m
Swell Vis
km
Cloud Weather Temp
°C
Press
hPa
Rain since
9am
mm
Dir  Spd
kts
Gust
kts
Height
m
Period
s
Dir
16/11:30pm - 15 17 - - - - - - - 23.3 1014.5 -
16/11:00pm - 15 17 - - - - - - - 23.3 1014.8 -
16/10:30pm - 14 19 - - - - - - - 23.3 1015.2 -
16/10:00pm - 15 16 - - - - - - - 23.3 1015.3 -
16/09:30pm - 14 17 - - - - - - - 23.4 1015.3 -
16/09:00pm - 15 17 - - - - - - - 23.6 1015.4 -
16/08:30pm - 16 19 - - - - - - - 23.5 1015.1 -
16/08:00pm - 17 19 - - - - - - - 23.5 1015.1 -
16/07:30pm - 17 19 - - - - - - - 23.8 1014.9 -
16/07:00pm - 16 19 - - - - - - - 23.8 1014.8 -
16/06:30pm - 15 18 - - - - - - - 23.7 1014.6 -
16/06:00pm - 16 18 - - - - - - - 23.8 1014.3 -
16/05:30pm - 16 17 - - - - - - - 23.8 1014.0 -
16/05:00pm - 15 17 - - - - - - - 24.0 1013.6 -
16/04:30pm - 15 17 - - - - - - - 24.1 1013.4 -
16/04:00pm - 15 18 - - - - - - - 24.2 1013.3 -
16/03:30pm - 16 18 - - - - - - - 24.0 1013.1 -
16/03:00pm - 15 17 - - - - - - - 24.4 1013.2 -
16/02:30pm - 16 18 - - - - - - - 24.3 1013.3 -
16/02:00pm - 15 19 - - - - - - - 24.5 1013.5 -
16/01:30pm - 15 18 - - - - - - - 24.5 1013.7 -
16/01:00pm - 14 16 - - - - - - - 24.0 1014.0 -
16/12:30pm - 13 15 - - - - - - - 24.7 1014.5 -
16/12:00pm - 13 15 - - - - - - - 24.5 1014.8 -
16/11:30am - 15 17 - - - - - - - 24.5 1015.0 -
16/11:00am - 14 17 - - - - - - - 24.4 1015.3 -
16/10:30am - 13 15 - - - - - - - 24.5 1015.4 -
16/10:00am - 13 16 - - - - - - - 24.3 1015.6 -
16/09:30am - 13 14 - - - - - - - 24.7 1015.8 -
16/09:00am - 13 15 - - - - - - - 24.2 1015.7 -
16/08:30am - 13 15 - - - - - - - 24.1 1015.7 -
16/08:00am - 13 15 - - - - - - - 24.0 1015.6 -
16/07:30am - 14 16 - - - - - - - 23.9 1015.6 -
16/07:00am - 14 16 - - - - - - - 23.7 1015.5 -
16/06:30am - 14 16 - - - - - - - 23.5 1015.4 -
16/06:00am - 15 17 - - - - - - - 23.3 1015.3 -
16/05:30am - 15 17 - - - - - - - 23.2 1014.9 -
16/05:00am - 15 18 - - - - - - - 22.8 1014.7 -
16/04:30am - 14 16 - - - - - - - 22.8 1014.6 -
16/04:00am - 13 15 - - - - - - - 22.8 1014.5 -
16/03:30am - 13 15 - - - - - - - 22.6 1014.3 -
16/03:00am - 13 15 - - - - - - - 22.6 1014.2 -
16/02:30am - 13 15 - - - - - - - 22.6 1014.4 -
16/02:00am - 14 17 - - - - - - - 22.6 1014.4 -
16/01:30am - 14 16 - - - - - - - 22.8 1014.6 -
16/01:00am - 15 17 - - - - - - - 22.8 1014.8 -
16/12:30am - 15 17 - - - - - - - 22.8 1015.2 -
16/12:00am - 15 19 - - - - - - - 23.0 1015.5 -
 
Date/Time
EST
Wind Sea
Height
m
Swell Vis
km
Cloud Weather Temp
°C
Press
hPa
Rain since
9am
mm
Dir  Spd
kts
Gust
kts
Height
m
Period
s
Dir
15/11:30pm - 16 19 - - - - - - - 22.9 1015.8 -
15/11:00pm - 16 19 - - - - - - - 23.0 1016.0 -
15/10:30pm - 16 18 - - - - - - - 23.1 1016.2 -
15/10:00pm - 17 19 - - - - - - - 23.2 1016.4 -
15/09:30pm - 17 19 - - - - - - - 23.1 1016.5 -
15/09:00pm - 16 18 - - - - - - - 23.3 1016.5 -
15/08:30pm - 15 18 - - - - - - - 23.3 1016.4 -
15/08:00pm - 15 18 - - - - - - - 23.3 1016.3 -
15/07:30pm - 16 19 - - - - - - - 23.5 1016.2 -
15/07:00pm - 16 18 - - - - - - - 23.3 1016.2 -
15/06:30pm - 15 17 - - - - - - - 23.4 1016.0 -
15/06:00pm - 16 18 - - - - - - - 23.4 1015.6 -
15/05:30pm - 15 17 - - - - - - - 23.7 1015.3 -
15/05:00pm - 15 17 - - - - - - - 23.8 1015.1 -
15/04:30pm - 15 17 - - - - - - - 23.8 1014.9 -
15/04:00pm - 14 15 - - - - - - - 24.1 1014.8 -
15/03:30pm - 13 16 - - - - - - - 24.1 1015.0 -
15/03:00pm - 14 15 - - - - - - - 24.1 1015.1 -
15/02:30pm - 14 16 - - - - - - - 24.1 1015.2 -
15/02:00pm - 13 15 - - - - - - - 24.3 1015.3 -
15/01:30pm - 13 15 - - - - - - - 24.4 1015.4 -
15/01:00pm - 12 14 - - - - - - - 24.6 1015.6 -
15/12:30pm - 12 14 - - - - - - - 24.4 1015.8 -
15/12:00pm - 11 13 - - - - - - - 24.6 1016.1 -
15/11:30am - 11 12 - - - - - - - 24.5 1016.4 -
15/11:00am - 11 13 - - - - - - - 24.8 1016.5 -
15/10:30am - 11 13 - - - - - - - 24.3 1016.8 -
15/10:00am - 11 13 - - - - - - - 24.5 1016.9 -

Other Formats:

Comma delimited format used in spreadsheet applications
http://www.bom.gov.au/fwo/IDQ60701/IDQ60701.94394.axf

JavaScript Object Notation format (JSON) in row-major order
http://www.bom.gov.au/fwo/IDQ60701/IDQ60701.94394.json